| time (UTC) | temp C | wind direction | speed KPH | gust KPH | rain 1hr cm | rain 24hr cm | rain mn cm | humidity % | barometer mb |
| 20260507135504 | 14 | 145 | 6.4 | 16.1 | 0.00 | 0.00 | 0.00 | 58 | 1017.0 |
| 20260507135004 | 13 | 149 | 6.4 | 16.1 | 0.00 | 0.00 | 0.00 | 59 | 1017.1 |
| 20260507134504 | 13 | 162 | 6.4 | 16.1 | 0.00 | 0.00 | 0.00 | 59 | 1017.2 |
| 20260507134004 | 13 | 164 | 6.4 | 16.1 | 0.00 | 0.00 | 0.00 | 58 | 1017.1 |
| 20260507133504 | 14 | 148 | 6.4 | 16.1 | 0.00 | 0.00 | 0.00 | 59 | 1017.2 |
| 20260507133004 | 14 | 147 | 6.4 | 16.1 | 0.00 | 0.00 | 0.00 | 59 | 1017.1 |
| 20260507132504 | 14 | 155 | 6.4 | 16.1 | 0.00 | 0.00 | 0.00 | 58 | 1017.0 |
| 20260507132004 | 14 | 159 | 6.4 | 14.5 | 0.00 | 0.00 | 0.00 | 57 | 1017.2 |
| 20260507131504 | 15 | 161 | 6.4 | 16.1 | 0.00 | 0.00 | 0.00 | 57 | 1017.3 |
| 20260507131004 | 15 | 162 | 4.8 | 16.1 | 0.00 | 0.00 | 0.00 | 57 | 1017.0 |
| 20260507130504 | 14 | 172 | 4.8 | 12.9 | 0.00 | 0.00 | 0.00 | 57 | 1017.0 |
| 20260507130004 | 13 | 180 | 4.8 | 12.9 | 0.00 | 0.00 | 0.00 | 58 | 1017.3 |
| 20260507125504 | 14 | 207 | 3.2 | 12.9 | 0.00 | 0.00 | 0.00 | 58 | 1017.1 |
| 20260507125004 | 13 | 202 | 1.6 | 12.9 | 0.00 | 0.00 | 0.00 | 58 | 1017.1 |
| 20260507124504 | 13 | 149 | 1.6 | 4.8 | 0.00 | 0.00 | 0.00 | 58 | 1017.1 |
| 20260507124004 | 13 | 154 | 1.6 | 4.8 | 0.00 | 0.00 | 0.00 | 58 | 1017.2 |
| 20260507123504 | 13 | 152 | 3.2 | 4.8 | 0.00 | 0.00 | 0.00 | 57 | 1017.2 |
| 20260507123004 | 14 | 150 | 1.6 | 9.7 | 0.00 | 0.00 | 0.00 | 56 | 1017.2 |
| 20260507122504 | 14 | 156 | 3.2 | 11.3 | 0.00 | 0.00 | 0.00 | 57 | 1017.2 |
| 20260507122004 | 14 | 160 | 4.8 | 11.3 | 0.00 | 0.00 | 0.00 | 55 | 1017.3 |
| 20260507121504 | 14 | 158 | 4.8 | 12.9 | 0.00 | 0.00 | 0.00 | 55 | 1017.2 |
| 20260507121004 | 14 | 153 | 4.8 | 12.9 | 0.00 | 0.00 | 0.00 | 56 | 1017.3 |
| 20260507120504 | 14 | 158 | 4.8 | 12.9 | 0.00 | 0.00 | 0.00 | 55 | 1017.3 |
| 20260507120004 | 15 | 177 | 1.6 | 11.3 | 0.00 | 0.00 | 0.00 | 54 | 1017.3 |
| 20260507115504 | 15 | 187 | 1.6 | 6.4 | 0.00 | 0.00 | 0.00 | 52 | 1017.6 |
| 20260507115004 | 15 | 179 | 3.2 | 11.3 | 0.00 | 0.00 | 0.00 | 52 | 1017.4 |
| 20260507114504 | 15 | 178 | 3.2 | 11.3 | 0.00 | 0.00 | 0.00 | 52 | 1017.5 |
| 20260507114004 | 15 | 162 | 3.2 | 11.3 | 0.00 | 0.00 | 0.00 | 53 | 1017.7 |
| 20260507113504 | 15 | 160 | 3.2 | 11.3 | 0.00 | 0.00 | 0.00 | 52 | 1017.4 |
| 20260507113004 | 15 | 171 | 3.2 | 11.3 | 0.00 | 0.00 | 0.00 | 52 | 1017.4 |
| 20260507112504 | 15 | 175 | 3.2 | 11.3 | 0.00 | 0.00 | 0.00 | 50 | 1017.4 |
| 20260507112004 | 15 | 162 | 1.6 | 9.7 | 0.00 | 0.00 | 0.00 | 52 | 1017.2 |
| 20260507111504 | 15 | 155 | 3.2 | 11.3 | 0.00 | 0.00 | 0.00 | 52 | 1017.3 |
| 20260507111004 | 15 | 166 | 3.2 | 14.5 | 0.00 | 0.00 | 0.00 | 49 | 1017.3 |
| 20260507110504 | 15 | 166 | 4.8 | 14.5 | 0.00 | 0.00 | 0.00 | 51 | 1017.5 |
| 20260507110004 | 14 | 153 | 4.8 | 12.9 | 0.00 | 0.00 | 0.00 | 52 | 1017.5 |
| 20260507105504 | 14 | 154 | 4.8 | 11.3 | 0.00 | 0.00 | 0.00 | 50 | 1017.5 |
| 20260507105004 | 15 | 159 | 3.2 | 11.3 | 0.00 | 0.00 | 0.00 | 48 | 1017.4 |
| 20260507104504 | 15 | 163 | 4.8 | 11.3 | 0.00 | 0.00 | 0.00 | 50 | 1017.6 |
| 20260507104004 | 16 | 170 | 4.8 | 11.3 | 0.00 | 0.00 | 0.00 | 47 | 1017.6 |
| 20260507103504 | 16 | 156 | 4.8 | 12.9 | 0.00 | 0.00 | 0.00 | 48 | 1017.6 |
| 20260507103004 | 15 | 147 | 6.4 | 12.9 | 0.00 | 0.00 | 0.00 | 51 | 1017.5 |
| 20260507102504 | 15 | 147 | 8.0 | 14.5 | 0.00 | 0.00 | 0.00 | 49 | 1017.5 |
| 20260507102004 | 15 | 131 | 8.0 | 14.5 | 0.00 | 0.00 | 0.00 | 52 | 1017.6 |
| 20260507101504 | 15 | 134 | 8.0 | 14.5 | 0.00 | 0.00 | 0.00 | 54 | 1017.5 |
| 20260507101004 | 15 | 146 | 6.4 | 12.9 | 0.00 | 0.00 | 0.00 | 56 | 1017.8 |
| 20260507100504 | 15 | 144 | 4.8 | 12.9 | 0.00 | 0.00 | 0.00 | 57 | 1017.8 |
| 20260507100004 | 15 | 159 | 4.8 | 16.1 | 0.00 | 0.00 | 0.00 | 55 | 1017.7 |
| 20260507095504 | 15 | 151 | 6.4 | 16.1 | 0.00 | 0.00 | 0.00 | 57 | 1017.6 |
| 20260507095004 | 13 | 134 | 6.4 | 14.5 | 0.00 | 0.00 | 0.00 | 60 | 1017.8 |
| 20260507094504 | 13 | 133 | 6.4 | 14.5 | 0.00 | 0.00 | 0.00 | 59 | 1017.7 |
| 20260507094004 | 13 | 147 | 6.4 | 12.9 | 0.00 | 0.00 | 0.00 | 60 | 1017.5 |
| 20260507093504 | 13 | 155 | 6.4 | 12.9 | 0.00 | 0.00 | 0.00 | 62 | 1017.5 |
| 20260507093004 | 13 | 158 | 4.8 | 11.3 | 0.00 | 0.00 | 0.00 | 60 | 1017.6 |
| 20260507092504 | 13 | 158 | 4.8 | 14.5 | 0.00 | 0.00 | 0.00 | 62 | 1017.4 |
| 20260507092004 | 13 | 141 | 4.8 | 14.5 | 0.00 | 0.00 | 0.00 | 62 | 1017.5 |
| 20260507091504 | 12 | 127 | 4.8 | 11.3 | 0.00 | 0.00 | 0.00 | 67 | 1017.7 |
| 20260507091004 | 12 | 113 | 4.8 | 11.3 | 0.00 | 0.00 | 0.00 | 68 | 1017.9 |
| 20260507090504 | 12 | 105 | 4.8 | 11.3 | 0.00 | 0.00 | 0.00 | 72 | 1017.7 |
| 20260507090005 | 12 | 106 | 4.8 | 12.9 | 0.00 | 0.00 | 0.00 | 72 | 1017.7 |
| 20260507085504 | 11 | 104 | 6.4 | 12.9 | 0.00 | 0.00 | 0.00 | 73 | 1018.0 |
| 20260507085004 | 11 | 107 | 4.8 | 9.7 | 0.00 | 0.00 | 0.00 | 73 | 1017.7 |
| 20260507084504 | 11 | 104 | 6.4 | 11.3 | 0.00 | 0.00 | 0.00 | 74 | 1017.8 |
| 20260507084004 | 11 | 106 | 4.8 | 11.3 | 0.00 | 0.00 | 0.00 | 74 | 1017.8 |
| 20260507083504 | 11 | 113 | 4.8 | 9.7 | 0.00 | 0.00 | 0.00 | 75 | 1017.8 |
| 20260507083004 | 11 | 125 | 4.8 | 9.7 | 0.00 | 0.00 | 0.00 | 75 | 1018.0 |
| 20260507082504 | 11 | 129 | 4.8 | 11.3 | 0.00 | 0.00 | 0.00 | 75 | 1017.9 |
| 20260507082004 | 10 | 116 | 4.8 | 11.3 | 0.00 | 0.00 | 0.00 | 75 | 1017.9 |
| 20260507081503 | 10 | 108 | 4.8 | 9.7 | 0.00 | 0.00 | 0.00 | 77 | 1017.6 |
| 20260507081003 | 10 | 105 | 4.8 | 9.7 | 0.00 | 0.00 | 0.00 | 76 | 1017.8 |
| 20260507080503 | 10 | 111 | 3.2 | 9.7 | 0.00 | 0.00 | 0.00 | 77 | 1017.9 |
| 20260507080004 | 10 | 117 | 4.8 | 11.3 | 0.00 | 0.00 | 0.00 | 78 | 1018.0 |
| 20260507075504 | 9 | 123 | 4.8 | 11.3 | 0.00 | 0.00 | 0.00 | 78 | 1017.8 |
| 20260507075004 | 9 | 125 | 3.2 | 9.7 | 0.00 | 0.00 | 0.00 | 79 | 1017.9 |
| 20260507074504 | 9 | 121 | 3.2 | 9.7 | 0.00 | 0.00 | 0.00 | 79 | 1017.9 |
| 20260507074004 | 9 | 115 | 3.2 | 9.7 | 0.00 | 0.00 | 0.00 | 79 | 1017.9 |
| 20260507073503 | 8 | 121 | 4.8 | 11.3 | 0.00 | 0.00 | 0.00 | 79 | 1017.7 |
| 20260507073004 | 8 | 125 | 4.8 | 11.3 | 0.00 | 0.00 | 0.00 | 80 | 1017.7 |
| 20260507072503 | 8 | 124 | 3.2 | 9.7 | 0.00 | 0.00 | 0.00 | 80 | 1017.7 |
| 20260507072004 | 8 | 117 | 3.2 | 6.4 | 0.00 | 0.00 | 0.00 | 81 | 1017.7 |
| 20260507071504 | 8 | 124 | 1.6 | 4.8 | 0.00 | 0.00 | 0.00 | 82 | 1017.7 |
| 20260507071003 | 8 | 133 | 1.6 | 3.2 | 0.00 | 0.00 | 0.00 | 83 | 1017.5 |
| 20260507070504 | 7 | 145 | 3.2 | 4.8 | 0.00 | 0.00 | 0.00 | 83 | 1017.6 |
| 20260507070007 | 7 | 150 | 3.2 | 4.8 | 0.00 | 0.00 | 0.00 | 83 | 1017.7 |
| 20260507065503 | 7 | 121 | 1.6 | 4.8 | 0.00 | 0.00 | 0.00 | 83 | 1017.7 |
| 20260507065004 | 7 | 101 | 3.2 | 6.4 | 0.00 | 0.00 | 0.00 | 83 | 1017.7 |
| 20260507064504 | 7 | 102 | 3.2 | 6.4 | 0.00 | 0.00 | 0.00 | 84 | 1017.6 |
| 20260507064004 | 7 | 117 | 3.2 | 9.7 | 0.00 | 0.00 | 0.00 | 84 | 1017.5 |
| 20260507063503 | 7 | 108 | 4.8 | 11.3 | 0.00 | 0.00 | 0.00 | 84 | 1017.6 |
| 20260507063004 | 7 | 101 | 3.2 | 11.3 | 0.00 | 0.00 | 0.00 | 84 | 1017.5 |
| 20260507062503 | 7 | 108 | 3.2 | 4.8 | 0.00 | 0.00 | 0.00 | 85 | 1017.3 |
| 20260507062003 | 7 | 109 | 1.6 | 4.8 | 0.00 | 0.00 | 0.00 | 85 | 1017.6 |
| 20260507061503 | 7 | 94 | 1.6 | 3.2 | 0.00 | 0.00 | 0.00 | 85 | 1017.5 |
| 20260507061004 | 7 | 97 | 1.6 | 3.2 | 0.00 | 0.00 | 0.00 | 85 | 1017.2 |
| 20260507060503 | 7 | 109 | 1.6 | 4.8 | 0.00 | 0.00 | 0.00 | 85 | 1017.6 |
| 20260507060004 | 6 | 115 | 3.2 | 4.8 | 0.00 | 0.00 | 0.00 | 85 | 1017.2 |
| 20260507055503 | 6 | 125 | 3.2 | 4.8 | 0.00 | 0.00 | 0.00 | 85 | 1017.3 |
| 20260507055004 | 7 | 139 | 1.6 | 4.8 | 0.00 | 0.00 | 0.00 | 85 | 1017.4 |
| 20260507054504 | 6 | 120 | 3.2 | 9.7 | 0.00 | 0.00 | 0.00 | 85 | 1017.5 |
| 20260507054003 | 6 | 110 | 3.2 | 9.7 | 0.00 | 0.00 | 0.00 | 85 | 1017.2 |
| 20260507053503 | 6 | 107 | 3.2 | 9.7 | 0.00 | 0.00 | 0.00 | 85 | 1017.2 |
| 20260507053004 | 6 | 105 | 1.6 | 3.2 | 0.00 | 0.00 | 0.00 | 84 | 1017.2 |
| 20260507052503 | 7 | 101 | 1.6 | 4.8 | 0.00 | 0.00 | 0.00 | 84 | 1017.3 |
| 20260507052003 | 6 | 105 | 3.2 | 4.8 | 0.00 | 0.00 | 0.00 | 85 | 1017.1 |
| 20260507051503 | 6 | 115 | 3.2 | 4.8 | 0.00 | 0.00 | 0.00 | 85 | 1017.3 |
| 20260507051003 | 6 | 111 | 3.2 | 4.8 | 0.00 | 0.00 | 0.00 | 85 | 1017.4 |
| 20260507050503 | 6 | 105 | 3.2 | 4.8 | 0.00 | 0.00 | 0.00 | 85 | 1017.6 |
| 20260507050003 | 6 | 103 | 3.2 | 4.8 | 0.00 | 0.00 | 0.00 | 84 | 1017.1 |
| 20260507045503 | 6 | 106 | 3.2 | 6.4 | 0.00 | 0.00 | 0.00 | 84 | 1017.1 |
| 20260507045003 | 6 | 108 | 3.2 | 6.4 | 0.00 | 0.00 | 0.00 | 84 | 1017.0 |
| 20260507044503 | 6 | 107 | 3.2 | 4.8 | 0.00 | 0.00 | 0.00 | 84 | 1017.2 |
| 20260507044003 | 6 | 106 | 3.2 | 6.4 | 0.00 | 0.00 | 0.00 | 84 | 1017.1 |
| 20260507043503 | 6 | 105 | 3.2 | 6.4 | 0.00 | 0.00 | 0.00 | 84 | 1017.0 |
| 20260507043003 | 6 | 111 | 3.2 | 6.4 | 0.00 | 0.00 | 0.00 | 84 | 1017.0 |
| 20260507042503 | 6 | 117 | 1.6 | 4.8 | 0.00 | 0.00 | 0.00 | 84 | 1016.9 |
| 20260507042003 | 6 | 124 | 1.6 | 4.8 | 0.00 | 0.00 | 0.00 | 84 | 1017.1 |
| 20260507041503 | 6 | 123 | 3.2 | 4.8 | 0.00 | 0.00 | 0.00 | 84 | 1016.9 |
| 20260507041003 | 6 | 122 | 1.6 | 4.8 | 0.00 | 0.00 | 0.00 | 84 | 1016.9 |
| 20260507040503 | 6 | 122 | 1.6 | 4.8 | 0.00 | 0.00 | 0.00 | 84 | 1017.3 |
| 20260507040004 | 6 | 103 | 1.6 | 4.8 | 0.00 | 0.00 | 0.00 | 84 | 1017.1 |
| 20260507035504 | 6 | 101 | 3.2 | 4.8 | 0.00 | 0.00 | 0.00 | 84 | 1017.4 |
| 20260507035003 | 6 | 103 | 3.2 | 6.4 | 0.00 | 0.00 | 0.00 | 83 | 1017.3 |
| 20260507034503 | 6 | 105 | 3.2 | 6.4 | 0.00 | 0.00 | 0.00 | 83 | 1017.2 |
| 20260507034003 | 6 | 105 | 3.2 | 6.4 | 0.00 | 0.00 | 0.00 | 83 | 1017.1 |
| 20260507033503 | 6 | 103 | 3.2 | 4.8 | 0.00 | 0.00 | 0.00 | 83 | 1017.3 |
| 20260507033003 | 6 | 103 | 3.2 | 4.8 | 0.00 | 0.00 | 0.00 | 83 | 1017.2 |
| 20260507032504 | 7 | 104 | 3.2 | 4.8 | 0.00 | 0.00 | 0.00 | 82 | 1017.3 |
| 20260507032003 | 7 | 103 | 1.6 | 4.8 | 0.00 | 0.00 | 0.00 | 82 | 1017.1 |
| 20260507031503 | 7 | 108 | 1.6 | 4.8 | 0.00 | 0.00 | 0.00 | 82 | 1017.2 |
| 20260507031003 | 7 | 112 | 3.2 | 4.8 | 0.00 | 0.00 | 0.00 | 82 | 1017.1 |
| 20260507030503 | 7 | 114 | 3.2 | 4.8 | 0.00 | 0.00 | 0.00 | 81 | 1017.3 |
| 20260507030003 | 7 | 114 | 3.2 | 4.8 | 0.00 | 0.00 | 0.00 | 81 | 1017.2 |
| 20260507025503 | 7 | 110 | 1.6 | 4.8 | 0.00 | 0.00 | 0.00 | 81 | 1017.0 |
| 20260507025003 | 7 | 118 | 1.6 | 3.2 | 0.00 | 0.00 | 0.00 | 81 | 1017.0 |
| 20260507024503 | 7 | 116 | 1.6 | 4.8 | 0.00 | 0.00 | 0.00 | 81 | 1017.1 |
| 20260507024003 | 7 | 105 | 3.2 | 4.8 | 0.00 | 0.00 | 0.00 | 81 | 1016.9 |
| 20260507023503 | 7 | 103 | 3.2 | 4.8 | 0.00 | 0.00 | 0.00 | 80 | 1016.9 |
| 20260507023003 | 7 | 103 | 3.2 | 4.8 | 0.00 | 0.00 | 0.00 | 80 | 1017.0 |
| 20260507022503 | 7 | 102 | 3.2 | 4.8 | 0.00 | 0.00 | 0.00 | 80 | 1017.1 |
| 20260507022003 | 7 | 105 | 3.2 | 4.8 | 0.00 | 0.00 | 0.00 | 80 | 1017.1 |
| 20260507021503 | 7 | 107 | 3.2 | 4.8 | 0.00 | 0.00 | 0.00 | 80 | 1017.2 |
| 20260507021003 | 7 | 107 | 3.2 | 3.2 | 0.00 | 0.00 | 0.00 | 79 | 1017.0 |
| 20260507020503 | 7 | 105 | 3.2 | 4.8 | 0.00 | 0.00 | 0.00 | 79 | 1017.0 |
| 20260507020003 | 7 | 107 | 4.8 | 6.4 | 0.00 | 0.00 | 0.00 | 79 | 1017.0 |
| 20260507015503 | 7 | 109 | 3.2 | 6.4 | 0.00 | 0.00 | 0.00 | 78 | 1017.1 |
| 20260507015004 | 7 | 105 | 4.8 | 9.7 | 0.00 | 0.00 | 0.00 | 78 | 1017.1 |
| 20260507014503 | 7 | 104 | 4.8 | 11.3 | 0.00 | 0.00 | 0.00 | 78 | 1017.2 |
| 20260507014003 | 7 | 105 | 4.8 | 11.3 | 0.00 | 0.00 | 0.00 | 78 | 1017.1 |
| 20260507013503 | 7 | 102 | 4.8 | 11.3 | 0.00 | 0.00 | 0.00 | 78 | 1017.1 |
| 20260507013003 | 7 | 102 | 3.2 | 6.4 | 0.00 | 0.00 | 0.00 | 78 | 1017.0 |
| 20260507012503 | 7 | 104 | 3.2 | 6.4 | 0.00 | 0.00 | 0.00 | 77 | 1017.1 |
| 20260507012003 | 7 | 106 | 3.2 | 4.8 | 0.00 | 0.00 | 0.00 | 77 | 1017.3 |
| 20260507011503 | 7 | 106 | 3.2 | 6.4 | 0.00 | 0.00 | 0.00 | 77 | 1017.1 |
| 20260507011003 | 7 | 102 | 3.2 | 6.4 | 0.00 | 0.00 | 0.00 | 77 | 1017.0 |
| 20260507010503 | 7 | 104 | 3.2 | 6.4 | 0.00 | 0.00 | 0.00 | 77 | 1017.0 |
| 20260507010003 | 7 | 107 | 3.2 | 6.4 | 0.00 | 0.00 | 0.00 | 77 | 1017.1 |
| 20260507005503 | 7 | 109 | 3.2 | 4.8 | 0.00 | 0.00 | 0.00 | 77 | 1017.1 |
| 20260507005003 | 7 | 109 | 3.2 | 4.8 | 0.00 | 0.00 | 0.00 | 77 | 1017.0 |
| 20260507004503 | 7 | 105 | 3.2 | 6.4 | 0.00 | 0.00 | 0.00 | 77 | 1017.0 |
| 20260507004003 | 7 | 109 | 4.8 | 9.7 | 0.00 | 0.00 | 0.00 | 77 | 1017.0 |
| 20260507003503 | 7 | 109 | 3.2 | 9.7 | 0.00 | 0.00 | 0.00 | 76 | 1017.1 |
| 20260507003003 | 7 | 108 | 3.2 | 6.4 | 0.00 | 0.00 | 0.00 | 76 | 1017.4 |
| 20260507002503 | 7 | 109 | 1.6 | 3.2 | 0.00 | 0.00 | 0.00 | 76 | 1017.2 |
| 20260507002003 | 7 | 104 | 1.6 | 1.6 | 0.00 | 0.00 | 0.00 | 75 | 1017.2 |
| 20260507001503 | 7 | 104 | 0.0 | 1.6 | 0.00 | 0.00 | 0.00 | 75 | 1017.3 |
| 20260507001003 | 7 | 105 | 1.6 | 4.8 | 0.00 | 0.00 | 0.00 | 76 | 1017.4 |
| 20260507000503 | 7 | 110 | 1.6 | 4.8 | 0.00 | 0.00 | 0.00 | 76 | 1017.2 |
| 20260507000003 | 7 | 115 | 1.6 | 3.2 | 0.00 | 0.00 | 0.00 | 77 | 1017.2 |
| 20260506235503 | 6 | 104 | 0.0 | 1.6 | 0.00 | 0.00 | 0.00 | 79 | 1017.3 |
| 20260506235003 | 6 | 101 | 0.0 | 1.6 | 0.00 | 0.00 | 0.00 | 79 | 1017.1 |
| 20260506234503 | 6 | 0 | 0.0 | 0.0 | 0.00 | 0.00 | 0.00 | 80 | 1017.2 |
| 20260506234003 | 6 | 0 | 0.0 | 0.0 | 0.00 | 0.00 | 0.00 | 79 | 1017.2 |
| 20260506233503 | 6 | 0 | 0.0 | 0.0 | 0.00 | 0.00 | 0.00 | 79 | 1017.3 |
| 20260506233003 | 6 | 0 | 0.0 | 0.0 | 0.00 | 0.00 | 0.00 | 79 | 1017.3 |
| 20260506232503 | 6 | 0 | 0.0 | 0.0 | 0.00 | 0.00 | 0.00 | 79 | 1017.0 |
| 20260506232003 | 6 | 0 | 0.0 | 0.0 | 0.00 | 0.00 | 0.00 | 79 | 1017.4 |
| 20260506231503 | 6 | 0 | 0.0 | 0.0 | 0.00 | 0.00 | 0.00 | 79 | 1017.2 |
| 20260506231003 | 6 | 0 | 0.0 | 0.0 | 0.00 | 0.00 | 0.00 | 78 | 1017.2 |
| 20260506230503 | 6 | 0 | 0.0 | 0.0 | 0.00 | 0.00 | 0.00 | 78 | 1017.0 |
| 20260506230003 | 6 | 99 | 0.0 | 1.6 | 0.00 | 0.00 | 0.00 | 78 | 1017.2 |
| 20260506225503 | 6 | 99 | 0.0 | 1.6 | 0.00 | 0.00 | 0.00 | 77 | 1017.3 |
| 20260506225003 | 6 | 99 | 0.0 | 1.6 | 0.00 | 0.00 | 0.00 | 78 | 1016.9 |
| 20260506224503 | 6 | 99 | 0.0 | 1.6 | 0.00 | 0.00 | 0.00 | 79 | 1016.9 |
| 20260506224003 | 6 | 0 | 0.0 | 1.6 | 0.00 | 0.00 | 0.00 | 79 | 1017.2 |
| 20260506223003 | 5 | 0 | 0.0 | 0.0 | 0.00 | 0.00 | 0.00 | 80 | 1017.0 |
| 20260506222503 | 5 | 0 | 0.0 | 0.0 | 0.00 | 0.00 | 0.00 | 79 | 1017.0 |
| 20260506222003 | 5 | 0 | 0.0 | 0.0 | 0.00 | 0.00 | 0.00 | 79 | 1017.0 |
| 20260506221504 | 5 | 0 | 0.0 | 0.0 | 0.00 | 0.00 | 0.00 | 78 | 1016.8 |
| 20260506221003 | 6 | 0 | 0.0 | 0.0 | 0.00 | 0.00 | 0.00 | 78 | 1016.8 |
| 20260506220503 | 6 | 0 | 0.0 | 0.0 | 0.00 | 0.00 | 0.00 | 78 | 1016.7 |
| 20260506220004 | 6 | 0 | 0.0 | 0.0 | 0.00 | 0.00 | 0.00 | 77 | 1016.6 |
| 20260506215504 | 6 | 0 | 0.0 | 0.0 | 0.00 | 0.00 | 0.00 | 76 | 1016.9 |
| 20260506215004 | 6 | 99 | 0.0 | 1.6 | 0.00 | 0.00 | 0.00 | 75 | 1016.8 |
| 20260506214504 | 6 | 99 | 0.0 | 1.6 | 0.00 | 0.00 | 0.00 | 75 | 1016.9 |
| 20260506214004 | 6 | 0 | 0.0 | 0.0 | 0.00 | 0.00 | 0.00 | 75 | 1016.8 |
| 20260506213504 | 6 | 0 | 0.0 | 0.0 | 0.00 | 0.00 | 0.00 | 74 | 1016.9 |
| 20260506213004 | 7 | 0 | 0.0 | 0.0 | 0.00 | 0.00 | 0.00 | 74 | 1016.6 |
| 20260506212504 | 7 | 0 | 0.0 | 0.0 | 0.00 | 0.00 | 0.00 | 73 | 1016.9 |
| 20260506212004 | 7 | 0 | 0.0 | 0.0 | 0.00 | 0.00 | 0.00 | 73 | 1016.8 |
| 20260506211504 | 7 | 0 | 0.0 | 0.0 | 0.00 | 0.00 | 0.00 | 72 | 1016.8 |
| 20260506211004 | 7 | 0 | 0.0 | 0.0 | 0.00 | 0.00 | 0.00 | 72 | 1016.7 |
| 20260506210504 | 7 | 0 | 0.0 | 0.0 | 0.00 | 0.00 | 0.00 | 72 | 1016.5 |
| 20260506210004 | 7 | 0 | 0.0 | 0.0 | 0.00 | 0.00 | 0.00 | 71 | 1016.6 |
| 20260506205504 | 7 | 0 | 0.0 | 0.0 | 0.00 | 0.00 | 0.00 | 71 | 1016.5 |
| 20260506205004 | 7 | 0 | 0.0 | 0.0 | 0.00 | 0.00 | 0.00 | 70 | 1016.6 |
| 20260506204504 | 8 | 0 | 0.0 | 0.0 | 0.00 | 0.00 | 0.00 | 70 | 1016.4 |
| 20260506204004 | 8 | 0 | 0.0 | 0.0 | 0.00 | 0.00 | 0.00 | 68 | 1016.3 |
| 20260506203504 | 8 | 0 | 0.0 | 0.0 | 0.00 | 0.00 | 0.00 | 68 | 1016.5 |
| 20260506203004 | 8 | 0 | 0.0 | 0.0 | 0.00 | 0.00 | 0.00 | 66 | 1016.4 |
| 20260506202504 | 9 | 0 | 0.0 | 0.0 | 0.00 | 0.00 | 0.00 | 65 | 1016.4 |
| 20260506202004 | 9 | 0 | 0.0 | 0.0 | 0.00 | 0.00 | 0.00 | 64 | 1016.4 |
| 20260506201504 | 10 | 0 | 0.0 | 0.0 | 0.00 | 0.00 | 0.00 | 61 | 1016.3 |
| 20260506201004 | 10 | 0 | 0.0 | 0.0 | 0.00 | 0.00 | 0.00 | 59 | 1016.2 |
| 20260506200504 | 11 | 99 | 0.0 | 1.6 | 0.00 | 0.00 | 0.00 | 57 | 1016.1 |
| 20260506200004 | 11 | 98 | 1.6 | 3.2 | 0.00 | 0.00 | 0.00 | 55 | 1015.9 |
| 20260506195503 | 11 | 97 | 1.6 | 3.2 | 0.00 | 0.00 | 0.00 | 53 | 1016.1 |
| 20260506195003 | 11 | 91 | 1.6 | 3.2 | 0.00 | 0.00 | 0.00 | 52 | 1016.0 |
| 20260506194504 | 11 | 90 | 1.6 | 3.2 | 0.00 | 0.00 | 0.00 | 51 | 1015.8 |
| 20260506194003 | 12 | 93 | 1.6 | 3.2 | 0.00 | 0.00 | 0.00 | 50 | 1015.8 |
| 20260506193504 | 12 | 94 | 1.6 | 4.8 | 0.00 | 0.00 | 0.00 | 50 | 1015.8 |
| 20260506193004 | 12 | 96 | 3.2 | 4.8 | 0.00 | 0.00 | 0.00 | 50 | 1015.7 |
| 20260506192504 | 12 | 95 | 3.2 | 6.4 | 0.00 | 0.00 | 0.00 | 50 | 1015.8 |
| 20260506192004 | 12 | 88 | 1.6 | 6.4 | 0.00 | 0.00 | 0.00 | 49 | 1015.9 |
| 20260506191504 | 12 | 88 | 1.6 | 4.8 | 0.00 | 0.00 | 0.00 | 49 | 1015.7 |
| 20260506191003 | 12 | 94 | 3.2 | 4.8 | 0.00 | 0.00 | 0.00 | 49 | 1015.8 |
| 20260506190504 | 12 | 98 | 3.2 | 6.4 | 0.00 | 0.00 | 0.00 | 49 | 1015.9 |
| 20260506190004 | 12 | 94 | 3.2 | 6.4 | 0.00 | 0.00 | 0.00 | 49 | 1015.7 |
| 20260506185504 | 12 | 90 | 3.2 | 9.7 | 0.00 | 0.00 | 0.00 | 48 | 1015.9 |
| 20260506185003 | 12 | 94 | 3.2 | 9.7 | 0.00 | 0.00 | 0.00 | 48 | 1015.7 |
| 20260506184504 | 12 | 99 | 3.2 | 6.4 | 0.00 | 0.00 | 0.00 | 47 | 1015.8 |
| 20260506184003 | 13 | 96 | 3.2 | 6.4 | 0.00 | 0.00 | 0.00 | 47 | 1015.7 |
| 20260506183504 | 13 | 86 | 1.6 | 4.8 | 0.00 | 0.00 | 0.00 | 48 | 1015.7 |
| 20260506183004 | 13 | 86 | 1.6 | 4.8 | 0.00 | 0.00 | 0.00 | 46 | 1015.7 |
| 20260506182503 | 13 | 88 | 1.6 | 6.4 | 0.00 | 0.00 | 0.00 | 46 | 1015.8 |
| 20260506182003 | 13 | 90 | 3.2 | 6.4 | 0.00 | 0.00 | 0.00 | 48 | 1015.6 |
| 20260506181503 | 13 | 88 | 3.2 | 4.8 | 0.00 | 0.00 | 0.00 | 46 | 1015.7 |
| 20260506181003 | 13 | 92 | 3.2 | 9.7 | 0.00 | 0.00 | 0.00 | 46 | 1015.5 |
| 20260506180504 | 13 | 85 | 4.8 | 9.7 | 0.00 | 0.00 | 0.00 | 47 | 1015.7 |
| 20260506180005 | 13 | 80 | 3.2 | 6.4 | 0.00 | 0.00 | 0.00 | 46 | 1015.5 |
| 20260506175504 | 13 | 83 | 3.2 | 6.4 | 0.00 | 0.00 | 0.00 | 46 | 1015.4 |
| 20260506175004 | 13 | 75 | 3.2 | 6.4 | 0.00 | 0.00 | 0.00 | 46 | 1015.5 |
| 20260506174504 | 13 | 77 | 4.8 | 6.4 | 0.00 | 0.00 | 0.00 | 46 | 1015.4 |
| 20260506174004 | 13 | 89 | 4.8 | 12.9 | 0.00 | 0.00 | 0.00 | 45 | 1015.4 |
| 20260506173504 | 13 | 101 | 4.8 | 12.9 | 0.00 | 0.00 | 0.00 | 46 | 1015.5 |
| 20260506173004 | 13 | 95 | 3.2 | 6.4 | 0.00 | 0.00 | 0.00 | 47 | 1015.4 |
| 20260506172504 | 13 | 78 | 4.8 | 11.3 | 0.00 | 0.00 | 0.00 | 46 | 1015.5 |
| 20260506172004 | 13 | 78 | 4.8 | 11.3 | 0.00 | 0.00 | 0.00 | 46 | 1015.4 |
| 20260506171504 | 13 | 88 | 4.8 | 11.3 | 0.00 | 0.00 | 0.00 | 46 | 1015.4 |
| 20260506171003 | 13 | 91 | 4.8 | 11.3 | 0.00 | 0.00 | 0.00 | 46 | 1015.3 |
| 20260506170503 | 13 | 85 | 4.8 | 9.7 | 0.00 | 0.00 | 0.00 | 45 | 1015.1 |
| 20260506170004 | 13 | 55 | 1.6 | 6.4 | 0.00 | 0.00 | 0.00 | 46 | 1015.2 |
| 20260506165504 | 13 | 40 | 1.6 | 4.8 | 0.00 | 0.00 | 0.00 | 45 | 1015.1 |
| 20260506165003 | 13 | 77 | 3.2 | 6.4 | 0.00 | 0.00 | 0.00 | 45 | 1015.2 |
| 20260506164503 | 13 | 75 | 3.2 | 6.4 | 0.00 | 0.00 | 0.00 | 46 | 1015.2 |
| 20260506164003 | 14 | 59 | 3.2 | 6.4 | 0.00 | 0.00 | 0.00 | 44 | 1015.4 |
| 20260506163503 | 15 | 53 | 1.6 | 6.4 | 0.00 | 0.00 | 0.00 | 43 | 1015.2 |
| 20260506163004 | 15 | 82 | 1.6 | 4.8 | 0.00 | 0.00 | 0.00 | 41 | 1015.2 |
| 20260506162503 | 14 | 86 | 3.2 | 6.4 | 0.00 | 0.00 | 0.00 | 43 | 1015.4 |
| 20260506162003 | 13 | 69 | 3.2 | 6.4 | 0.00 | 0.00 | 0.00 | 45 | 1015.2 |
| 20260506161503 | 13 | 69 | 3.2 | 9.7 | 0.00 | 0.00 | 0.00 | 44 | 1015.4 |
| 20260506161003 | 13 | 72 | 3.2 | 9.7 | 0.00 | 0.00 | 0.00 | 44 | 1015.4 |
| 20260506160503 | 13 | 82 | 3.2 | 12.9 | 0.00 | 0.00 | 0.00 | 45 | 1015.4 |
| 20260506160003 | 13 | 74 | 4.8 | 12.9 | 0.00 | 0.00 | 0.00 | 46 | 1015.6 |
| 20260506155503 | 13 | 63 | 4.8 | 11.3 | 0.00 | 0.00 | 0.00 | 45 | 1015.2 |
| 20260506155003 | 14 | 87 | 3.2 | 9.7 | 0.00 | 0.00 | 0.00 | 45 | 1015.2 |
| 20260506154503 | 14 | 106 | 4.8 | 11.3 | 0.00 | 0.00 | 0.00 | 44 | 1015.4 |
| 20260506154003 | 14 | 103 | 4.8 | 11.3 | 0.00 | 0.00 | 0.00 | 45 | 1015.2 |
| 20260506153503 | 14 | 78 | 3.2 | 9.7 | 0.00 | 0.00 | 0.00 | 44 | 1015.4 |
| 20260506153003 | 14 | 55 | 3.2 | 9.7 | 0.00 | 0.00 | 0.00 | 44 | 1015.4 |
| 20260506152503 | 14 | 68 | 4.8 | 11.3 | 0.00 | 0.00 | 0.00 | 44 | 1015.3 |
| 20260506152003 | 14 | 63 | 4.8 | 11.3 | 0.00 | 0.00 | 0.00 | 44 | 1015.5 |
| 20260506151503 | 14 | 44 | 3.2 | 9.7 | 0.00 | 0.00 | 0.00 | 42 | 1015.4 |
| 20260506151003 | 14 | 48 | 3.2 | 9.7 | 0.00 | 0.00 | 0.00 | 44 | 1015.4 |
| 20260506150504 | 13 | 53 | 3.2 | 9.7 | 0.00 | 0.00 | 0.00 | 44 | 1015.6 |
| 20260506150003 | 14 | 59 | 3.2 | 11.3 | 0.00 | 0.00 | 0.00 | 44 | 1015.5 |
| 20260506145503 | 14 | 73 | 3.2 | 11.3 | 0.00 | 0.00 | 0.00 | 44 | 1015.7 |
| 20260506145003 | 14 | 84 | 4.8 | 12.9 | 0.00 | 0.00 | 0.00 | 43 | 1015.5 |
| 20260506144503 | 14 | 99 | 6.4 | 12.9 | 0.00 | 0.00 | 0.00 | 43 | 1015.6 |
| 20260506144003 | 15 | 104 | 4.8 | 11.3 | 0.00 | 0.00 | 0.00 | 43 | 1015.6 |
| 20260506143503 | 14 | 42 | 3.2 | 9.7 | 0.00 | 0.00 | 0.00 | 42 | 1015.7 |
| 20260506143003 | 15 | 315 | 4.8 | 11.3 | 0.00 | 0.00 | 0.00 | 42 | 1015.6 |
| 20260506142503 | 14 | 311 | 4.8 | 11.3 | 0.00 | 0.00 | 0.00 | 42 | 1015.7 |
| 20260506142003 | 14 | 322 | 3.2 | 11.3 | 0.00 | 0.00 | 0.00 | 43 | 1015.8 |
| 20260506141503 | 13 | 29 | 1.6 | 6.4 | 0.00 | 0.00 | 0.00 | 43 | 1015.9 |
| 20260506141003 | 13 | 62 | 4.8 | 9.7 | 0.00 | 0.00 | 0.00 | 44 | 1016.0 |
| 20260506140503 | 13 | 83 | 4.8 | 9.7 | 0.00 | 0.00 | 0.00 | 46 | 1015.7 |
| 20260506140003 | 13 | 84 | 6.4 | 16.1 | 0.00 | 0.00 | 0.00 | 45 | 1015.9 |